Content
SEND FEEDBACK

Daily
Averages
Monthly
Summary
United States of America

SOUTH NAKNEK, ALASKA


Home > North America > United States > Alaska
Elevation: 5 feet     Latitude: 58 41N     Longitude: 156 39W

WEATHER
 
SELECT A DAY
Number of Records: 212,656;   Date Range: 1/1/95 - 10/21/14
 
SHARE

PRINT THIS DATA

[ ← Previous Day ]
WEATHER ALMANAC - FEBRUARY 13, 2013
[ Next Day → ]
[ °C ]   °F
Weather ElementAverageHighLow
Temperature30.5 °F37 °F (3:54 pm)21 °F (2:54 am)
Dewpoint26.5 °F30.9 °F (7:54 pm)19 °F (2:54 am)
Humidity85.7 %100 % (3:44 am)72 % (1:54 pm)
Barometer29.50 in29.68 in (1:54 am)29.27 in (9:54 pm)
Wind Speed7.9 mph19.6 mph (4:54 pm)
Wind Gust28.8 mph (6:54 pm)
Weather ElementAverage
Visibility9.5 mi
Wind DirectionENE (78.5 °)

Weather ElementTotal
Precipitation0.03 in
Heating Degree Days36 (Base 65)
Averaged from 27 records on February 13, 2013
WEATHER CONDITIONS BREAKOUT
WIND DIRECTION BREAKOUT
WEATHER BY HOUR - FEBRUARY 13, 2013
[ °C ]   °F
Local TimeTemperatureDewpointHumidityBarometerVisibilityWind DirectionWind SpeedGust SpeedPrecipitationEventsConditions
1:08 AM28.4 °F26.6 °F93 %29.66 in10.0 miSE (140°)8.1 mphOvercast
1:54 AM26.1 °F25.0 °F96 %29.68 in10.0 miCalmMostly Cloudy
2:54 AM21.0 °F19.0 °F92 %29.66 in4.0 miCalmMostly Cloudy
3:44 AM24.8 °F24.8 °F100 %29.64 in9.0 miCalmOvercast
3:54 AM25.0 °F25.0 °F100 %29.65 in9.0 miSSE (150°)5.8 mph0.00 inSnowLight Snow
4:35 AM26.6 °F24.8 °F93 %29.64 in10.0 miSE (140°)3.5 mph0.00 inOvercast
4:54 AM26.1 °F25.0 °F96 %29.63 in10.0 miCalm0.00 inOvercast
5:32 AM26.6 °F26.6 °F100 %29.61 in5.0 miCalm0.01 inSnowLight Snow
5:54 AM26.1 °F25.0 °F96 %29.61 in10.0 miEast (80°)3.5 mph0.01 inOvercast
6:54 AM25.0 °F23.0 °F92 %29.60 in10.0 miEast (90°)4.6 mphOvercast
7:54 AM25.0 °F23.0 °F92 %29.57 in10.0 miEast (80°)8.1 mphScattered Clouds
8:54 AM24.1 °F21.9 °F91 %29.56 in10.0 miENE (70°)6.9 mph0.01 inMostly Cloudy
9:54 AM26.1 °F23.0 °F88 %29.55 in10.0 miENE (60°)6.9 mphMostly Cloudy
10:54 AM27.0 °F24.1 °F89 %29.53 in10.0 miENE (60°)8.1 mphMostly Cloudy
11:54 AM30.9 °F25.0 °F79 %29.51 in10.0 miNE (50°)6.9 mphOvercast
12:54 PM33.1 °F26.1 °F75 %29.49 in10.0 miCalmOvercast
1:54 PM35.1 °F27.0 °F72 %29.47 in10.0 miNE (40°)8.1 mphOvercast
2:54 PM35.1 °F27.0 °F72 %29.44 in10.0 miNorth (360°)9.2 mphOvercast
3:54 PM37.0 °F28.9 °F73 %29.40 in10.0 miENE (60°)9.2 mphOvercast
4:54 PM37.0 °F28.9 °F73 %29.37 in10.0 miEast (80°)19.6 mph26.5 mphOvercast
5:54 PM36.0 °F30.0 °F79 %29.35 in10.0 miEast (80°)17.3 mph26.5 mphOvercast
6:54 PM37.0 °F30.0 °F76 %29.33 in10.0 miEast (80°)17.3 mph28.8 mphOvercast
7:54 PM37.0 °F30.9 °F79 %29.31 in10.0 miEast (90°)16.1 mph23.0 mphOvercast
8:54 PM37.0 °F30.9 °F79 %29.30 in10.0 miEast (100°)15.0 mph0.00 inOvercast
9:54 PM36.0 °F30.9 °F82 %29.27 in9.0 miEast (100°)15.0 mph0.00 inSnowLight Snow
10:54 PM37.0 °F30.9 °F79 %29.27 in10.0 miESE (110°)13.8 mph23.0 mph0.00 inOvercast
11:54 PM37.0 °F30.9 °F79 %29.27 in10.0 miEast (100°)11.5 mphOvercast
Hourly data recorded from PAKN, located miles away from South Naknek, Alaska







STORIES FROM OUR PARTNERS